軌道要素
Epoch 2022 Jan. 21.0 TT = JDT 2459600.5
T 2022 Jan. 2.13648 TT Rudenko
q 1.8062242 (2000.0) P Q
n 0.14730813 Peri. 75.53522 +0.78707435 -0.61158803
a 3.5507349 Node 322.07358 +0.50345766 +0.71226326
e 0.4913098 Incl. 7.52197 +0.35643281 +0.34444321
P 6.69
From 571 observations 2008 Aug. 25-2022 Jan. 31, mean residual 0".7.
|